User: anonymous   Login
Location: Unspecified
(0.0000°N, 0.0000°E)
Time: 22:24:21
(UTC+00:00)
Language:

USA 200 - Orbit

View from above orbital plane
View from above orbital plane
View from above satellite
View from above satellite

Ground track
Ground track

The orbit data is extracted from the following two-line orbital elements,

1 32706U 08010A   16135.55350297 -.00000458  00000-0  00000-0 0    00
2 32706  63.1818  40.2227 7140564 269.5266  15.9552  2.00615000    08
Epoch (UTC): 14 May 2016 13:17:02
Eccentricity: 0.7140564
inclination: 63.1818°
perigee height: 1215 km
apogee height: 39139 km
right ascension of ascending node: 40.2227°
argument of perigee: 269.5266°
revolutions per day: 2.00615000
mean anomaly at epoch: 15.9552°
orbit number at epoch: 0

The dashed part of the orbit path shows where the satellite is in the earth's shadow,  

DLR